DW9007 Weather Reports


Display with metric or nautical units.
time (UTC)temp
F
wind
direction
speed
MPH
gust
MPH
rain 1hr
in
rain 24hr
in
rain mn
in
humidity
%
barometer
mb
20260510170009 71 336 0.0 0.0 0.00 0.00 0.00 84 1016.5
20260510164508 71 88 0.0 0.0 0.00 0.00 0.00 85 1016.7
20260510163050 70 13 0.0 3.0 0.00 0.00 0.00 86 1016.7
20260510161550 70 338 0.0 2.0 0.00 0.00 0.00 87 1016.6
20260510160038 70 228 0.0 1.0 0.00 0.00 0.00 87 1016.7
20260510154547 69 227 0.0 2.0 0.00 0.00 0.00 89 1016.6
20260510153038 68 221 1.0 4.0 0.00 0.00 0.00 90 1016.5
20260510151519 66 88 0.0 0.0 0.00 0.00 0.00 91 1016.5
20260510150019 66 88 0.0 0.0 0.00 0.00 0.00 93 1016.7
20260510144541 65 85 0.0 1.0 0.00 0.00 0.00 93 1016.7
20260510143017 65 85 0.0 2.0 0.00 0.00 0.00 94 1016.9
20260510141517 65 67 0.0 0.0 0.00 0.00 0.00 95 1016.9
20260510140017 64 36 0.0 1.0 0.00 0.00 0.00 95 1016.9
20260510134516 64 36 0.0 0.0 0.00 0.00 0.00 95 1016.7
20260510133058 64 36 0.0 0.0 0.00 0.00 0.00 95 1016.7
20260510131557 64 36 0.0 0.0 0.00 0.00 0.00 96 1016.7
20260510130038 64 36 0.0 1.0 0.00 0.00 0.00 96 1016.4
20260510124541 64 36 0.0 0.0 0.00 0.00 0.00 96 1016.3
20260510123018 64 36 0.0 0.0 0.00 0.00 0.00 96 1015.9
20260510121516 63 36 0.0 0.0 0.00 0.00 0.00 96 1015.8
20260510120055 63 36 0.0 0.0 0.00 0.00 0.00 96 1015.4
20260510114554 63 36 0.0 0.0 0.00 0.00 0.00 96 1015.1
20260510113034 63 36 0.0 0.0 0.00 0.00 0.00 95 1014.9
20260510111535 63 36 0.0 0.0 0.00 0.00 0.00 95 1014.6
20260510110015 63 36 0.0 0.0 0.00 0.00 0.00 95 1014.3
20260510104509 63 36 0.0 1.0 0.00 0.00 0.00 95 1014.2
20260510103047 63 54 0.0 0.0 0.00 0.00 0.00 95 1013.9
20260510101552 63 54 0.0 2.0 0.00 0.00 0.00 95 1013.9
20260510100028 63 58 0.0 0.0 0.00 0.00 0.00 95 1013.8
20260510094528 63 58 0.0 2.0 0.00 0.00 0.00 95 1013.5
20260510093007 63 88 0.0 1.0 0.00 0.00 0.00 95 1013.3
20260510091507 63 17 0.0 2.0 0.00 0.00 0.00 95 1013.0
20260510090049 64 17 0.0 3.0 0.00 0.00 0.00 95 1013.1
20260510084559 63 250 0.0 1.0 0.00 0.00 0.00 95 1013.0
20260510083035 63 249 0.0 0.0 0.00 0.00 0.00 95 1012.8
20260510081535 63 249 0.0 0.0 0.00 0.00 0.00 95 1012.7
20260510080012 63 249 0.0 0.0 0.00 0.00 0.00 95 1012.5
20260510074512 63 249 0.0 0.0 0.00 0.00 0.00 95 1012.6
20260510073055 63 249 0.0 0.0 0.00 0.00 0.00 94 1012.5
20260510071555 63 249 0.0 0.0 0.00 0.00 0.00 95 1012.5
20260510070037 63 249 0.0 0.0 0.00 0.00 0.00 95 1012.7
20260510064535 63 249 0.0 0.0 0.00 0.00 0.00 95 1012.9
20260510063017 63 249 0.0 0.0 0.00 0.00 0.00 94 1012.9
20260510061515 63 249 0.0 0.0 0.00 0.00 0.00 94 1012.9
20260510060056 63 249 0.0 0.0 0.00 0.00 0.00 94 1013.0
20260510054555 64 249 0.0 0.0 0.00 0.00 0.00 94 1013.2
20260510053053 64 249 0.0 0.0 0.00 0.00 0.00 94 1013.1
20260510051544 64 249 0.0 0.0 0.00 0.00 0.00 94 1013.3
20260510050045 64 249 0.0 0.0 0.00 0.00 0.00 93 1013.2
20260510044547 64 249 0.0 0.0 0.00 0.00 0.00 93 1013.2
20260510043043 64 249 0.0 0.0 0.00 0.00 0.00 93 1013.4
20260510041540 64 249 0.0 0.0 0.00 0.00 0.00 93 1013.3
20260510040039 65 249 0.0 0.0 0.00 0.00 0.00 93 1013.3
20260510034537 65 249 0.0 0.0 0.00 0.00 0.00 92 1013.3
20260510033016 65 249 0.0 0.0 0.00 0.00 0.00 92 1013.3
20260510031517 66 249 0.0 0.0 0.00 0.00 0.00 91 1013.2
20260510030058 66 249 0.0 0.0 0.00 0.00 0.00 91 1013.3
20260510024555 66 249 0.0 0.0 0.00 0.00 0.00 90 1013.1
20260510023043 67 249 0.0 0.0 0.00 0.00 0.00 90 1013.1
20260510021538 67 249 0.0 0.0 0.00 0.00 0.00 89 1012.8
20260510020035 67 249 0.0 0.0 0.00 0.00 0.00 88 1012.6
20260510014532 67 249 0.0 0.0 0.00 0.00 0.00 88 1012.3
20260510013028 68 254 0.0 0.0 0.00 0.00 0.00 87 1012.0
20260510011527 68 254 0.0 0.0 0.00 0.00 0.00 85 1011.9
20260510010024 68 254 0.0 0.0 0.00 0.00 0.00 85 1011.5
20260510004521 69 254 0.0 0.0 0.00 0.00 0.00 84 1011.3
20260510003002 69 254 0.0 0.0 0.00 0.00 0.00 83 1011.2
20260510001600 70 254 0.0 0.0 0.00 0.00 0.00 83 1011.1
20260510000039 71 254 0.0 0.0 0.00 0.00 0.00 82 1011.0
20260509234539 71 254 0.0 0.0 0.00 0.00 0.00 81 1010.8
20260509233017 72 254 0.0 0.0 0.00 0.00 0.00 81 1010.7
20260509231515 72 254 0.0 0.0 0.00 0.00 0.00 79 1010.5
20260509230058 73 254 0.0 0.0 0.00 0.00 0.00 77 1010.5
20260509224557 73 254 0.0 0.0 0.00 0.00 0.00 76 1010.4
20260509223042 73 254 0.0 0.0 0.00 0.00 0.00 76 1010.3
20260509221538 73 254 0.0 0.0 0.00 0.00 0.00 76 1010.2
20260509220020 74 254 0.0 0.0 0.00 0.00 0.00 75 1010.1
20260509214523 73 254 0.0 0.0 0.00 0.00 0.00 75 1010.1
20260509213002 73 281 0.0 1.0 0.00 0.00 0.00 74 1010.0
20260509211601 74 296 0.0 0.0 0.00 0.00 0.00 73 1009.8
20260509211502 74 296 0.0 0.0 0.00 0.00 0.00 73 1009.8
20260509210045 74 315 0.0 0.0 0.00 0.00 0.00 73 1009.9
20260509204541 75 315 0.0 0.0 0.00 0.00 0.00 76 1009.6
20260509203024 74 315 0.0 0.0 0.00 0.00 0.00 75 1010.1
20260509201520 74 317 0.0 0.0 0.00 0.00 0.00 76 1010.0
20260509200001 74 42 0.0 0.0 0.00 0.00 0.00 76 1009.9
20260509194559 74 11 0.0 0.0 0.00 0.00 0.00 78 1010.2
20260509193059 74 53 0.0 0.0 0.00 0.00 0.00 78 1010.3
20260509191537 73 263 0.0 0.0 0.00 0.00 0.00 79 1010.5
20260509190034 72 68 0.0 4.0 0.00 0.00 0.00 83 1010.6
20260509184518 71 319 0.0 3.0 0.00 0.00 0.00 84 1010.8
20260509183012 70 277 0.0 4.0 0.00 0.00 0.00 83 1011.1
20260509181551 69 348 1.0 5.0 0.00 0.00 0.00 85 1011.4
20260509180049 69 173 1.0 5.0 0.00 0.00 0.00 85 1011.6
20260509174534 68 261 0.0 2.0 0.00 0.00 0.00 87 1011.9
20260509173028 67 201 0.0 4.0 0.00 0.00 0.00 89 1011.8
20260509171506 66 200 1.0 6.0 0.00 0.00 0.00 88 1011.8